Погода Красный Яр

Погода Красный Яр : погода сейчас, прогноз погоды и архив. Всё, что Вы хотите узнать о погоде Красный Яр!

Хотите узнать прогноз погоды Красный Яр? Тогда Вам сюда: Погода Красный Яр

Поиск расширенной информации на нашем сайте:

Другие новости

Новости СМИ2

Главная страница сайта

Новости сайта

03.07.2017

Напоминаем, что на нашем специализированном сайте Метеоцентр.Азия вы можете получить высокодетализированные автоматические прогнозы погоды по пунктам России, СНГ и мира в авиационном формате (включающие направление и скорость ветра, видимость, явления погоды, количество и форму облачности, нижнюю и верхнюю границу облачности).

Рекомендуем: Самая детальная информация у нас на сайте: усыновление - смотрите тут.

Погода Красный Яр - сегодня

Время (UTC), дата Ветер
(°,м/с) 
Видим.   Явления Облачность Т
(°С)
Тd
(°С)
f(%) Тe
(°С)
Pmin
(гПа)
dP
(гПа)
Po
(мм)
O2
(г/м3)
Тmin Tmax R s Состояние
почвы
12 19.11.17 тихо ()   20000 м    ясно 
-23.1 -26.2 76 -23  1022.5  0.5  753  333           
15 19.11.17 060 (СВ) 20000 м    ясно 
-26.9 -29.6 78 -28  1022.4  -0.3  753  339           
18 19.11.17 060 (СВ) 20000 м    ясно 
-28.6 -31.4 77 -29  1022.3  -0.2  753  341           
21 19.11.17 050 (СВ) 20000 м    ясно 
-30.1 -33.1 75 -31  1022.8  0.3  753  343  -30.1      14  равномерный
сухой снег
100% 
00 20.11.17 тихо ()   20000 м    ясно 
-22.8 -26.1 74 -23  1021.9  -0.3  753  333  -30.5         
03 20.11.17 230 (ЮЗ) 20000 м    1/1 600 м 
[Sc]
-15 -23.9 47 -19  1019.6  -1.8  752  322           
06 20.11.17 220 (ЮЗ) 20000 м    3/3 600 м 
[Sc]
-14.1 -23.2 46 -18  1018.1  -1.3  751  321           
09 20.11.17 220 (ЮЗ) 20000 м    ясно 
-17.6 -23.2 62 -20  1020  1.6  752  325    -13.7       
12 20.11.17 210 (ЮЗ) 20000 м    ясно 
-21 -25 70 -24  1021  0.8  752  330           
15 20.11.17 220 (ЮЗ) 20000 м    ясно 
-20.1 -24.2 70 -23  1022.3  1.4  754  329           
18 20.11.17 050 (СВ) 20000 м    ясно 
-25.5 -28.2 78 -26  1024.6  1.8  755  337           
21 20.11.17 тихо ()   20000 м    ясно 
-25.2 -27.7 80 -25  1025.6  1.1  756  337  -26.1      14  равномерный
сухой снег
100% 
00 21.11.17 230 (ЮЗ) 20000 м    ясно 
-14.9 -21.3 58 -17  1025.6  0.7  756  324           
03 21.11.17 210 (ЮЗ) 20000 м    3/0 средняя 
[Ac cast]
-8.8 -18.9 44 -12  1023.7  -1.4  755  316           
06 21.11.17 200 (Ю) 20000 м    3/0 верхняя 
[Ci fib]
-8 -18.8 42 -10  1021.5  -2.1  754  314           
09 21.11.17 020 (С) 20000 м    ясно 
-15.5 -18.7 76 -16  1020  -2  752  323    -7.3       
12 21.11.17 310 (СЗ) 20000 м    ясно 
-15.7 -19.5 73 -16  1019.1  -0.8  751  323           
15 21.11.17 070 (В) 20000 м    10/10 600 м 
[Sc]
-11.4 -19.5 51 -11  1015.9  -2.8  749  317           
18 21.11.17 080 (В) 20000 м    10/10 600 м 
[Sc]
-9.7 -16 60 -11  1012.3  -3.4  747  313           
21 21.11.17 060 (СВ) 20000 м    10/10 600 м кучево-дожд. 
[Cb cap]
-8.8 -11 84 -10  1009.5  -2.8  745  311  -18.7      14  равномерный
сухой снег
100% 
00 22.11.17 070 (В) 4000 м  слаб. ливневой снег  10/10 600 м кучево-дожд. 
[Cb cap]
-7.4 -8.9 89 -7  1007.3  -2  743  309           
03 22.11.17 220 (ЮЗ) 10 км  слаб. ливневой снег  10/10 600 м кучево-дожд. 
[Cb cap]
-0.1 -3.9 76 -1  1006.2  -0.6  743  300           
06 22.11.17 250 (З) 3{11}  20000 м  в посл. час ливневой снег  10/10 600 м кучево-дожд. 
[Cb cap]
-1.6 -6.6 69 -4  1007.8  1.4  744  302           
12 22.11.17 270 (З) 20000 м    10/10 600 м кучево-дожд. 
[Cb cap]
-6.5 -9.7 78 -8  1011.1  1.1  746  309           
15 22.11.17 210 (ЮЗ) 20000 м    10/10 600 м кучево-дожд. 
[Cb cap]
-7.5 -9.3 87 -7  1011.4  0.3  746  310           
Время (UTC), дата Ветер
(°,м/с) 
Видим.   Явления Облачность Т
(°С)
Тd
(°С)
f(%) Тe
(°С)
Pmin
(гПа)
dP
(гПа)
Po
(мм)
O2
(г/м3)
Тmin Tmax R s Состояние
почвы

Для получения пояснительной информации подведите курсор к названию столбца.

ПОГОДА Красный Яр - архив

Всё, что Вы хотите узнать о погоде Красный Яр - удобно и подробно!

Выберите нужную дату (начиная с 1 января 2015* года) и нажмите кнопку "Найти".
Будут отображены архивные сводки погоды по пункту Красный Яр, начиная с указанной даты.


Отображать данные в формате CSV (для использования в таблицах Excel)


Внимание! Наш архив погоды предназначен исключительно для личного некоммерческого использования в познавательных целях. Если Вам необходимы официальные справки о состоянии погоды (для производственных, юридических, коммерческих и т.п. целей), обращайтесь в органы Росгидромета.

*Примечание: данная дата относится к архиву по метеостанциям СССР (Россия, СНГ, Балтия).
Архив по метеостанциям Зарубежной Европы и Азии (кроме Китая) хранится 10 дней, по другим регионам земного шара (Китай, Африка, Америка, Австралия, Океания) - 1 день.

Красный Яр - район местоположения метеостанции


Название, широта, долгота, высота метеостанции:
Красный Яр 46.5°ш. 135.3°д. 130 м над ур. моря [Российская Федерация]

Дополнительная информация

В oтличие oт бoльшинства пoгoдных сайтoв мы публикуем пoдрoбную метеoинфoрмацию в детальнoм прoфессиoнальнoм фoрмате.

Характеристики температуры и влажнoсти вoздуха измеряются на высoте 2 м в тени вдали oт зданий и деревьев.
Скoрoсть ветра измеряется на высoте 10 м (на урoвне рoста челoвека скoрoсть ветра ниже в 1.5-2 раза). Если метеoстанция нахoдится в гoрoде или в лесу, тo скoрoсть ветра занижена на 2-4 м/с пo сравнению с oткрытым местoм. Скoрoсть ветра над акватoриями крупных рек и oзёр, а также на вершинах хoлмoв на 2-5 м/с выше, чем в oбычных услoвиях.
Атмoсфернoе давление в разных тoчках местнoсти мoжет значительнo oтличаться oт давления на метеoстанции, в зависимoсти oт услoвий рельефа (при пoдъёме на 10 м давление пoнижается примернo на 1 мм рт.ст.).